Deer Park, WA
on Wednesday, November 14, 2012

Wednesday
Previous Day Next Day
Daily Summary
 ActualAverageRecord
Temperature
Mean Temperature °F 34°F  
Max Temperature 35°F 42°F 62°F (1999)
Min Temperature 32°F 27°F 14°F (2003)
Degree Days
Heating Degree Days 31 31  
Month to date heating degree days 381 399  
Since 1 July heating degree days 1293 1467  
Cooling Degree Days 0 0  
Month to date cooling degree days 0 0  
Year to date cooling degree days 232 187  
Moisture
Dew Point 33°F   
Average Humidity 98    
Maximum Humidity 100    
Minimum Humidity 96    
Precipitation
Precipitation 0.00 in 0.11 in 0.40 in (2001)
Month to date precipitation 1.02 1.44  
Year to date precipitation 21.02 17.50  
Snow
Snow 0.00 in in in ()
Month to date snowfall  
Since 1 July snowfall  
Since 1 September snowfall  
Snow Depth in   
Wind
Wind Speed 3 mph   
Max Wind Speed 10 mph   
Max Gust Speed 13 mph   
Visibility 4 miles   
Events Fog   

Key: T is trace of precipitation, MM is missing value
Source: NWS Daily Summary
Time(PST)TemperatureDew PointHumidity Pressure Visibility Wind DirectionWind SpeedGust SpeedPrecipitationEvents Conditions
12:07 AM 33.8°F 33.8°F 100% 30.15 in 0.5 miles Calm Calm - N/A Fog Fog
12:20 AM 33.8°F 33.8°F 100% 30.16 in 0.5 miles Calm Calm - N/A Fog Fog
12:36 AM 33.8°F 33.8°F 100% 30.15 in 0.8 miles Calm Calm - N/A   Overcast
12:53 AM 33.1°F 33.1°F 100% 30.21 in 0.5 miles Calm Calm - N/A Fog Fog
1:00 AM 33.8°F 33.8°F 100% 30.15 in 0.5 miles Calm Calm - N/A Fog Fog
1:07 AM 33.8°F 33.8°F 100% 30.16 in 0.5 miles Calm Calm - N/A Fog Fog
1:53 AM 33.1°F 33.1°F 100% 30.21 in 0.2 miles Calm Calm - N/A Fog Fog
2:05 AM 33.8°F 33.8°F 100% 30.16 in 0.5 miles Calm Calm - N/A Fog Fog
2:20 AM 33.8°F 33.8°F 100% 30.15 in 0.2 miles Calm Calm - N/A Fog Fog
2:53 AM 33.1°F 33.1°F 100% 30.20 in 0.8 miles Calm Calm - N/A   Overcast
3:01 AM 33.8°F 33.8°F 100% 30.14 in 0.8 miles Calm Calm - N/A   Overcast
3:08 AM 33.8°F 33.8°F 100% 30.14 in 1.5 miles Calm Calm - N/A   Overcast
3:13 AM 33.8°F 33.8°F 100% 30.14 in 3.0 miles Calm Calm - N/A   Overcast
3:53 AM 34.0°F 34.0°F 100% 30.20 in 5.0 miles SE 5.8 mph - N/A   Overcast
4:02 AM 33.8°F 33.8°F 100% 30.14 in 2.0 miles SSE 6.9 mph - N/A   Overcast
4:31 AM 33.8°F 33.8°F 100% 30.15 in 1.0 miles South 6.9 mph - N/A   Overcast
4:40 AM 33.8°F 33.8°F 100% 30.15 in 3.0 miles South 5.8 mph - N/A   Overcast
4:53 AM 34.0°F 34.0°F 100% 30.21 in 4.0 miles South 5.8 mph - N/A   Overcast
5:01 AM 33.8°F 33.8°F 100% 30.15 in 2.5 miles South 6.9 mph - N/A   Overcast
5:23 AM 33.8°F 33.8°F 100% 30.15 in 1.0 miles South 4.6 mph - N/A   Overcast
5:30 AM 33.8°F 33.8°F 100% 30.15 in 0.5 miles South 6.9 mph - N/A Fog Fog
5:53 AM 34.0°F 34.0°F 100% 30.22 in 0.5 miles South 5.8 mph - N/A Fog Fog
6:16 AM 33.8°F 33.8°F 100% 30.17 in 2.0 miles SSW 9.2 mph - N/A   Overcast
6:26 AM 33.8°F 33.8°F 100% 30.17 in 4.0 miles SSW 9.2 mph - N/A   Overcast
6:36 AM 33.8°F 33.8°F 100% 30.17 in 1.8 miles South 6.9 mph - N/A   Overcast
6:53 AM 34.0°F 34.0°F 100% 30.24 in 1.8 miles SSW 6.9 mph - N/A   Overcast
7:01 AM 33.8°F 33.8°F 100% 30.18 in 2.0 miles SSW 8.1 mph - N/A   Overcast
7:21 AM 33.8°F 33.8°F 100% 30.18 in 3.0 miles SSW 6.9 mph - N/A   Overcast
7:30 AM 33.8°F 33.8°F 100% 30.18 in 2.5 miles SSW 6.9 mph - N/A   Overcast
7:43 AM 33.8°F 33.8°F 100% 30.19 in 4.0 miles South 6.9 mph - N/A   Overcast
7:53 AM 33.1°F 33.1°F 100% 30.25 in 5.0 miles South 6.9 mph - N/A   Overcast
8:22 AM 33.8°F 33.8°F 100% 30.20 in 2.0 miles SSW 6.9 mph - N/A   Overcast
8:43 AM 33.8°F 33.8°F 100% 30.21 in 1.5 miles SSW 4.6 mph - N/A   Overcast
8:53 AM 33.1°F 33.1°F 100% 30.27 in 1.8 miles SSW 5.8 mph - N/A   Overcast
9:13 AM 33.8°F 32.0°F 93% 30.22 in 3.0 miles SSW 5.8 mph - N/A   Overcast
9:35 AM 33.8°F 33.8°F 100% 30.23 in 2.5 miles SW 5.8 mph - N/A   Overcast
9:43 AM 33.8°F 33.8°F 100% 30.23 in 4.0 miles SW 4.6 mph - N/A   Overcast
9:53 AM 33.1°F 33.1°F 100% 30.30 in 4.0 miles SSW 6.9 mph - N/A   Overcast
10:53 AM 32.0°F 32.0°F 100% 30.31 in 7.0 miles South 9.2 mph - N/A   Overcast
11:53 AM 33.1°F 32.0°F 96% 30.32 in 10.0 miles SW 3.5 mph - N/A   Overcast
12:53 PM 33.1°F 32.0°F 96% 30.32 in 10.0 miles SW 3.5 mph - N/A   Overcast
1:17 PM 33.8°F 32.0°F 93% 30.26 in 10.0 miles Calm Calm - N/A   Overcast
1:36 PM 33.8°F 32.0°F 93% 30.26 in 10.0 miles Calm Calm - N/A   Overcast
1:53 PM 34.0°F 32.0°F 92% 30.32 in 10.0 miles Calm Calm - N/A   Overcast
2:53 PM 34.0°F 32.0°F 92% 30.33 in 10.0 miles Calm Calm - N/A   Overcast
3:53 PM 34.0°F 33.1°F 96% 30.35 in 4.0 miles Calm Calm - N/A   Overcast
4:20 PM 33.8°F 32.0°F 93% 30.29 in 5.0 miles Calm Calm - N/A   Overcast
4:53 PM 33.1°F 33.1°F 100% 30.36 in 9.0 miles Calm Calm - N/A   Overcast
5:29 PM 33.8°F 33.8°F 100% 30.30 in 5.0 miles Calm Calm - N/A   Overcast
5:44 PM 33.8°F 33.8°F 100% 30.30 in 7.0 miles Calm Calm - N/A   Overcast
5:53 PM 33.1°F 33.1°F 100% 30.37 in 7.0 miles Calm Calm - N/A   Overcast
6:04 PM 33.8°F 33.8°F 100% 30.31 in 8.0 miles Calm Calm - N/A   Overcast
6:38 PM 33.8°F 33.8°F 100% 30.31 in 6.0 miles Calm Calm - N/A   Overcast
6:53 PM 33.1°F 33.1°F 100% 30.38 in 6.0 miles NW 3.5 mph - N/A   Overcast
7:01 PM 33.8°F 33.8°F 100% 30.32 in 6.0 miles Calm Calm - N/A   Overcast
7:44 PM 33.8°F 33.8°F 100% 30.33 in 9.0 miles Calm Calm - N/A   Overcast
7:53 PM 33.1°F 33.1°F 100% 30.39 in 9.0 miles Calm Calm - N/A   Overcast
8:18 PM 33.8°F 33.8°F 100% 30.33 in 10.0 miles Calm Calm - N/A   Overcast
8:39 PM 33.8°F 33.8°F 100% 30.33 in 10.0 miles Calm Calm - N/A   Overcast
8:53 PM 33.1°F 33.1°F 100% 30.39 in 9.0 miles Calm Calm - N/A   Overcast
9:34 PM 33.8°F 32.0°F 93% 30.33 in 7.0 miles Calm Calm - N/A   Overcast
9:53 PM 33.1°F 32.0°F 96% 30.40 in 9.0 miles North 3.5 mph - N/A   Overcast
10:53 PM 33.1°F 32.0°F 96% 30.40 in 8.0 miles Calm Calm - N/A   Overcast
11:53 PM 33.1°F 32.0°F 96% 30.40 in 9.0 miles NE 3.5 mph - N/A   Overcast
Moon Phase
Nov. 14 Nov. 20 Nov. 28 Dec. 06 Dec. 13
Sunrise:06:55 AM (PST) Moon Rise:07:54 AM (PST)11/14
Sunset:04:12 PM (PST) Moon Set:05:00 PM (PST)11/14

Copyright © 2014 The Weather Underground, Inc.